Location: Bright Sky Observatory
(40.7821°N, 74.2425°W)
Time: 11:17:08
(UTC-04:00)

Amateur Radio Satellites - All Passes

Search period start: 25 October 2014 10:47
Search period end: 26 October 2014 10:47
Location: Bright Sky Observatory, 40.7821°N, 74.2425°W

Satellite Date Start Highest point End Downlink Frequencies (MHz)
Time Altitude Azimuth
KITSAT 1 25 Oct 11:03:40 11:09:46 24° 104° (ESE) 11:15:52 435.175 FM
ZACube-1 25 Oct 11:04:49 11:09:01 55° 100° (E) 11:13:06 437.345 MHz
UKube-1 25 Oct 11:09:07 11:13:22 51° 288° (WNW) 11:17:35 145.840 MHz, 145.915 MHz
PCSat 25 Oct 11:12:21 11:14:05 11° 37° (NE) 11:15:48 145.825 MHz
HO-68 25 Oct 11:16:57 11:23:23 37° 297° (WNW) 11:29:47 435.675 MHz FM
FUNcube-1 25 Oct 11:49:35 11:53:39 44° 288° (WNW) 11:57:37 145.950 - 145.970 MHz USB
Oscar 11 25 Oct 11:51:09 11:54:16 20° 294° (WNW) 11:57:22 145.825 FM, Beacon 2401.500 USB
ISS 25 Oct 12:22:19 12:25:25 37° 137° (SE) 12:28:32 145.800 FM
Sapphire 25 Oct 12:31:01 12:36:02 36° 53° (NE) 12:41:01 437.095 MHz 1200 baud AX-25 AFSK
Oscar 19 25 Oct 12:33:45 12:37:35 21° 64° (ENE) 12:41:23 437.125 CW, 437.150 USB
JAS-1B 25 Oct 12:40:24 12:44:53 23° 63° (ENE) 12:49:15 435.800 - 435.900 CW/SSB
ZACube-1 25 Oct 12:42:56 12:44:55 13° 297° (WNW) 12:46:52 437.345 MHz
Oscar 10/S400 25 Oct 12:44:46 13:02:57 30° 151° (SSE) 13:20:00 145.825 - 145.975 CW/USB, Beacon 145.810 USB
PCSat 25 Oct 12:53:19 12:58:42 58° 58° (ENE) 13:04:01 145.825 MHz
AO-27 25 Oct 12:54:13 12:56:57 15° 60° (ENE) 12:59:41 436.795 MHz FM
SO-50 25 Oct 12:54:36 12:59:02 64° 119° (ESE) 13:03:36 436.795 FM
KITSAT 1 25 Oct 12:56:18 13:04:22 73° 303° (WNW) 13:12:29 435.175 FM
AO-Echo 25 Oct 13:09:54 13:13:43 23° 65° (ENE) 13:17:38 ?
Oscar 16 25 Oct 13:18:08 13:23:10 56° 72° (ENE) 13:28:12 437.025 USB, Beacon 2401.1428
Uribyol 2 25 Oct 13:39:05 13:43:52 38° 69° (ENE) 13:48:41 436.500 FM
ITAMSAT 1 25 Oct 13:45:13 13:50:03 40° 69° (ENE) 13:54:55 435.822 SSB
ISS 25 Oct 13:59:10 14:02:09 29° 334° (NNW) 14:05:08 145.800 FM
Gurwin Techsat 1B 25 Oct 14:08:48 14:13:34 35° 68° (ENE) 14:18:22 435.225 FM
Oscar 19 25 Oct 14:11:37 14:16:34 48° 261° (W) 14:21:33 437.125 CW, 437.150 USB
Sapphire 25 Oct 14:14:34 14:19:22 33° 250° (WSW) 14:24:09 437.095 MHz 1200 baud AX-25 AFSK
UOSAT-12 25 Oct 14:15:11 14:19:28 39° 115° (ESE) 14:23:50 437.025 FM, 437.400 FM
TMSAT-1 25 Oct 14:19:43 14:24:24 33° 68° (ENE) 14:29:07 436.925 FM
AO-7 25 Oct 14:27:29 14:33:12 21° 52° (NE) 14:38:55 29.400 - 29.500 MHz
JAS-1B 25 Oct 14:29:36 14:35:20 46° 260° (W) 14:40:46 435.800 - 435.900 CW/SSB
AO-27 25 Oct 14:30:35 14:35:47 76° 257° (WSW) 14:41:03 436.795 MHz FM
SO-50 25 Oct 14:36:51 14:40:02 18° 319° (NW) 14:43:17 436.795 FM
PCSat 25 Oct 14:37:51 14:41:37 19° 255° (WSW) 14:45:21 145.825 MHz
AO-Echo 25 Oct 14:47:36 14:52:11 41° 262° (W) 14:56:58 ?
KITSAT 1 25 Oct 14:55:26 15:01:16 21° 326° (NW) 15:07:08 435.175 FM
Uosat F 25 Oct 14:58:13 14:59:36 11° 58° (ENE) 15:00:59 435.120 FM
Oscar 16 25 Oct 14:59:29 15:02:50 17° 268° (W) 15:06:12 437.025 USB, Beacon 2401.1428
Uribyol 2 25 Oct 15:19:04 15:23:24 26° 265° (W) 15:27:46 436.500 FM
ITAMSAT 1 25 Oct 15:25:27 15:29:39 25° 266° (W) 15:33:53 435.822 SSB
ISS 25 Oct 15:37:55 15:39:40 13° 354° (N) 15:41:24 145.800 FM
Saudisat 1A 25 Oct 15:39:44 15:43:37 29° 48° (NE) 15:47:27 436.775 MHz
Gurwin Techsat 1B 25 Oct 15:49:00 15:53:33 29° 265° (W) 15:58:08 435.225 FM
UOSAT-12 25 Oct 15:55:44 15:59:42 27° 313° (NW) 16:03:45 437.025 FM, 437.400 FM
TMSAT-1 25 Oct 15:59:38 16:04:17 31° 264° (W) 16:08:58 436.925 FM
AO-40 25 Oct 16:07:10 23:00:54 41° 185° (S) 04:44:30 Beacon 2401.320
AO-7 25 Oct 16:16:36 16:24:54 89° 71° (ENE) 16:33:14 29.400 - 29.500 MHz
Uosat F 25 Oct 16:32:33 16:37:34 87° 75° (ENE) 16:42:39 435.120 FM
KITSAT 1 25 Oct 17:00:19 17:00:36 10° 356° (N) 17:00:54 435.175 FM
JAS-2 25 Oct 17:06:46 17:12:28 48° 68° (ENE) 17:18:55 435.800 - 435.900 CW/SSB, 435.910 FM
ISS 25 Oct 17:15:09 17:17:23 17° 15° (NNE) 17:19:38 145.800 FM
Hamsat 25 Oct 17:15:28 17:19:03 28° 70° (ENE) 17:22:39 145.90 MHz
Saudisat 1A 25 Oct 17:19:14 17:23:10 32° 245° (WSW) 17:27:05 436.775 MHz
AO-7 25 Oct 18:13:26 18:18:39 18° 269° (W) 18:23:54 29.400 - 29.500 MHz
OPAL 25 Oct 18:17:10 18:22:09 73° 105° (ESE) 18:27:04 ?
STRAND 1 25 Oct 18:26:53 18:28:18 11° 89° (E) 18:29:44 ?
ISS 25 Oct 18:51:19 18:54:37 59° 34° (NNE) 18:57:55 145.800 FM
Hamsat 25 Oct 18:51:36 18:54:59 23° 265° (W) 18:58:21 145.90 MHz
JAS-2 25 Oct 18:52:55 18:57:51 27° 269° (W) 19:03:20 435.800 - 435.900 CW/SSB, 435.910 FM
KITSAT 1 25 Oct 18:55:26 19:00:19 17° 28° (NNE) 19:05:10 435.175 FM
SO-67 25 Oct 19:29:24 19:32:47 58° 260° (W) 19:36:11 435.3500 MHz FM
SO-50 25 Oct 19:48:18 19:49:26 11° 34° (NE) 19:50:35 436.795 FM
HO-68 25 Oct 19:57:41 20:03:53 33° 62° (ENE) 20:10:07 435.675 MHz FM
OPAL 25 Oct 19:57:50 20:00:25 14° 302° (WNW) 20:03:00 ?
STRAND 1 25 Oct 20:02:55 20:08:06 83° 285° (WNW) 20:13:14 ?
ISS 25 Oct 20:28:55 20:30:59 16° 229° (SW) 20:33:02 145.800 FM
UKube-1 25 Oct 20:30:36 20:32:36 13° 62° (ENE) 20:34:37 145.840 MHz, 145.915 MHz
KITSAT 1 25 Oct 20:49:54 20:57:48 54° 53° (NE) 21:05:39 435.175 FM
RS-15 25 Oct 21:04:24 21:13:34 32° 105° (ESE) 21:22:37 29.354 - 29.394 USB, Beacon 29.352 USB
Oscar 11 25 Oct 21:09:18 21:13:01 28° 69° (ENE) 21:16:43 145.825 FM, Beacon 2401.500 USB
FUNcube-1 25 Oct 21:11:12 21:13:34 14° 64° (ENE) 21:15:55 145.950 - 145.970 MHz USB
SO-50 25 Oct 21:26:17 21:31:03 55° 54° (NE) 21:35:51 436.795 FM
HO-68 25 Oct 21:44:27 21:51:19 49° 260° (W) 21:58:15 435.675 MHz FM
STRAND 1 25 Oct 21:45:12 21:46:26 11° 302° (WNW) 21:47:41 ?
ZACube-1 25 Oct 22:00:35 22:04:57 45° 72° (ENE) 22:09:16 437.345 MHz
UKube-1 25 Oct 22:03:58 22:08:16 62° 258° (WSW) 22:12:36 145.840 MHz, 145.915 MHz
MaSat-1 25 Oct 22:40:24 22:42:38 14° 106° (ESE) 22:44:46 437.345 MHz
FUNcube-1 25 Oct 22:44:54 22:49:26 61° 259° (W) 22:53:56 145.950 - 145.970 MHz USB
UOSAT-12 25 Oct 22:44:55 22:49:13 33° 49° (NE) 22:53:27 437.025 FM, 437.400 FM
Oscar 11 25 Oct 22:45:36 22:49:09 25° 265° (W) 22:52:43 145.825 FM, Beacon 2401.500 USB
KITSAT 1 25 Oct 22:45:46 22:52:53 36° 252° (WSW) 22:59:58 435.175 FM
SO-50 25 Oct 23:07:52 23:11:13 19° 250° (WSW) 23:14:34 436.795 FM
RS-15 25 Oct 23:14:02 23:24:59 70° 306° (NW) 23:35:57 29.354 - 29.394 USB, Beacon 29.352 USB
ZACube-1 25 Oct 23:38:30 23:41:32 17° 268° (W) 23:44:33 437.345 MHz
MaSat-1 26 Oct 00:14:02 00:17:58 44° 298° (WNW) 00:21:33 437.345 MHz
UOSAT-12 26 Oct 00:25:12 00:29:17 30° 247° (WSW) 00:33:18 437.025 FM, 437.400 FM
Oscar 16 26 Oct 01:31:00 01:34:41 20° 93° (E) 01:38:21 437.025 USB, Beacon 2401.1428
RS-15 26 Oct 01:31:07 01:39:47 26° 335° (NNW) 01:48:33 29.354 - 29.394 USB, Beacon 29.352 USB
Oscar 10/S400 26 Oct 01:52:45 02:43:49 16° 247° (WSW) 04:20:10 145.825 - 145.975 CW/USB, Beacon 145.810 USB
Uribyol 2 26 Oct 01:53:47 01:56:12 13° 90° (E) 01:58:36 436.500 FM
ITAMSAT 1 26 Oct 01:59:49 02:02:36 14° 90° (E) 02:05:21 435.822 SSB
JAS-1B 26 Oct 02:11:15 02:17:50 47° 100° (E) 02:25:36 435.800 - 435.900 CW/SSB
Oscar 19 26 Oct 02:23:13 02:28:18 62° 101° (ESE) 02:33:21 437.125 CW, 437.150 USB
Gurwin Techsat 1B 26 Oct 02:26:40 02:29:21 14° 90° (E) 02:32:01 435.225 FM
TMSAT-1 26 Oct 02:37:27 02:39:44 13° 89° (E) 02:42:00 436.925 FM
AO-27 26 Oct 02:44:07 02:49:01 39° 98° (E) 02:53:53 436.795 MHz FM
AO-Echo 26 Oct 02:54:26 02:59:45 67° 101° (ESE) 03:05:01 ?
Oscar 16 26 Oct 03:09:22 03:14:17 48° 289° (WNW) 03:19:11 437.025 USB, Beacon 2401.1428
Sapphire 26 Oct 03:12:52 03:17:39 33° 110° (ESE) 03:22:27 437.095 MHz 1200 baud AX-25 AFSK
Uribyol 2 26 Oct 03:30:59 03:36:12 73° 286° (WNW) 03:41:21 436.500 FM
PCSat 26 Oct 03:34:39 03:39:55 56° 114° (ESE) 03:45:14 145.825 MHz
ITAMSAT 1 26 Oct 03:37:21 03:42:33 68° 287° (WNW) 03:47:43 435.822 SSB
RS-15 26 Oct 03:49:49 03:57:32 21° 11° (NNE) 04:05:23 29.354 - 29.394 USB, Beacon 29.352 USB
OPAL 26 Oct 03:55:26 03:58:37 17° 60° (ENE) 04:01:47 ?
JAS-1B 26 Oct 04:02:25 04:08:17 34° 294° (WNW) 04:15:06 435.800 - 435.900 CW/SSB
Oscar 19 26 Oct 04:03:56 04:07:07 17° 298° (WNW) 04:10:18 437.125 CW, 437.150 USB
Gurwin Techsat 1B 26 Oct 04:04:31 04:09:49 71° 286° (WNW) 04:15:06 435.225 FM
TMSAT-1 26 Oct 04:14:54 04:20:13 77° 285° (WNW) 04:25:30 436.925 FM
AO-7 26 Oct 04:19:05 04:26:12 30° 96° (E) 04:33:16 29.400 - 29.500 MHz
AO-27 26 Oct 04:24:02 04:28:19 26° 295° (WNW) 04:32:34 436.795 MHz FM
AO-Echo 26 Oct 04:34:37 04:37:56 17° 298° (WNW) 04:41:15 ?
Uosat F 26 Oct 04:41:03 04:45:20 27° 96° (E) 04:49:34 435.120 FM
Sapphire 26 Oct 04:56:03 05:01:00 36° 308° (NW) 05:05:59 437.095 MHz 1200 baud AX-25 AFSK
PCSat 26 Oct 05:19:23 05:23:41 24° 313° (NW) 05:28:01 145.825 MHz
OPAL 26 Oct 05:31:52 05:36:59 65° 256° (WSW) 05:42:03 ?
STRAND 1 26 Oct 05:41:41 05:45:02 18° 62° (ENE) 05:48:24 ?
TMSAT-1 26 Oct 05:58:25 05:59:13 10° 303° (WNW) 06:00:00 436.925 FM
JAS-2 26 Oct 06:00:07 06:07:42 51° 98° (E) 06:15:11 435.800 - 435.900 CW/SSB, 435.910 FM
RS-15 26 Oct 06:03:19 06:13:51 45° 44° (NE) 06:24:45 29.354 - 29.394 USB, Beacon 29.352 USB
AO-7 26 Oct 06:11:14 06:19:21 60° 294° (WNW) 06:27:29 29.400 - 29.500 MHz
Uosat F 26 Oct 06:19:35 06:24:08 35° 292° (WNW) 06:28:39 435.120 FM
Hamsat 26 Oct 06:36:20 06:40:29 60° 100° (E) 06:44:39 145.90 MHz
STRAND 1 26 Oct 07:18:41 07:23:44 59° 259° (W) 07:28:50 ?
PANSAT 26 Oct 07:23:22 07:24:15 11° 170° (S) 07:25:09 not established
Saudisat 1A 26 Oct 07:24:38 07:28:59 68° 120° (ESE) 07:33:22 436.775 MHz
JAS-2 26 Oct 07:45:29 07:52:24 37° 295° (WNW) 07:59:21 435.800 - 435.900 CW/SSB, 435.910 FM
AO-7 26 Oct 08:06:44 08:10:27 14° 315° (NW) 08:14:09 29.400 - 29.500 MHz
Hamsat 26 Oct 08:14:14 08:15:56 12° 296° (WNW) 08:17:39 145.90 MHz
RS-15 26 Oct 08:15:45 08:26:38 60° 246° (WSW) 08:38:00 29.354 - 29.394 USB, Beacon 29.352 USB
MaSat-1 26 Oct 08:25:25 08:26:57 14° 54° (NE) 08:28:25 437.345 MHz
SO-67 26 Oct 08:25:42 08:29:01 46° 285° (WNW) 08:32:20 435.3500 MHz FM
PANSAT 26 Oct 09:01:52 09:03:38 13° 183° (S) 09:05:24 not established
Saudisat 1A 26 Oct 09:06:11 09:09:00 17° 319° (NW) 09:11:51 436.775 MHz
HO-68 26 Oct 09:12:25 09:18:49 34° 97° (E) 09:25:09 435.675 MHz FM
UKube-1 26 Oct 09:52:59 09:56:25 22° 95° (E) 09:59:49 145.840 MHz, 145.915 MHz
MaSat-1 26 Oct 10:01:01 10:02:22 14° 254° (WSW) 10:03:40 437.345 MHz
Oscar 11 26 Oct 10:32:28 10:36:44 59° 101° (E) 10:40:58 145.825 FM, Beacon 2401.500 USB
FUNcube-1 26 Oct 10:34:57 10:38:27 25° 95° (E) 10:41:53 145.950 - 145.970 MHz USB
RS-15 26 Oct 10:35:01 10:36:34 10° 266° (W) 10:38:08 29.354 - 29.394 USB, Beacon 29.352 USB
